sat.trackr.live / text

‹ back to catalog

NINGXIA-1 10

NORAD 49022 · 2021-064E

PAYLOAD ACTIVE UNKNOWN

§ Identity

Operator
Country
PRC
Launch date
2021-07-09
Launch site
TAISC
Launch vehicle
Mass (kg)
RCS (m²)

External: N2YO · Heavens-Above · Gunter

§ Orbital elements

Epoch: 2026-05-25T00:34:53.962752Z

Period
102.23 min
Inclination
45.0011°
Eccentricity
0.0007780
Mean motion
14.08550619 rev/d
Perigee alt
858.7 km
Apogee alt
870.0 km
Semi-major
7,242.5 km
B*
2.4208e-5
RAAN
331.0929°
Arg perigee
151.8941°
Mean anomaly
208.2317°
Rev number
25,096

§ Raw data

NINGXIA-1 101 49022U 21064E   26145.02423568 -.00000090  00000+0  24208-4 0  99972 49022  45.0011 331.0929 0007780 151.8941 208.2317 14.08550619250962

JSON: /api/v1/satellites/49022 · /tle

For live sub-satellite position, see the globe view (requires WebGL).

§ Visibility from observer

Set your observer location to see the next 7 days of passes ≥ 10°. The values pass through the URL so the page stays shareable.

No JS? Fill the form by hand. The geolocation button needs JavaScript.